Weather History for Millington, TN

Change the Weather History Date:

Monday, January 6, 2014

  Actual Average Record
Temperature  
Mean Temperature 12 °F -  
Max Temperature 15 °F 48 °F - (-1)
Min Temperature 8 °F 32 °F - (-1)
Degree Days  
Heating Degree Days 52    
Moisture  
Dew Point -2 °F    
Average Humidity 54    
Maximum Humidity 62    
Minimum Humidity 45    
Precipitation  
Precipitation 0.00 in - - ()
Sea Level Pressure  
Sea Level Pressure 30.52 in    
Wind  
Wind Speed 13 mph (WNW)    
Max Wind Speed 17 mph    
Max Gust Speed -    
Visibility 10 miles    
Events      
Averages and records for this station are not official NWS values.
T = Trace of Precipitation, MM = Missing Value Source: NWS Daily Summary

Daily Weather History Graph

Daily Weather History Graph

Search for Another Location

Airport:

Trip Planner

Search our weather history database for the weather conditions in past years. The results will help you decide how hot, cold, wet, or windy it might be!

Date:

Astronomy

Jan. 06, 2014 Rise Set
Actual Time 7:08 AM CST 5:02 PM CST
Civil Twilight 6:40 AM CST 5:30 PM CST
Nautical Twilight 6:09 AM CST 6:01 PM CST
Astronomical Twilight 5:38 AM CST 6:32 PM CST
Moon 10:38 AM CST (1/6) 11:20 PM CST (1/6)
Length of Visible Light 10h 49m
Length of Day
9h 53m
Waxing Crescent, 35% of the Moon is Illuminated
Jan 6
Waxing Crescent
Jan 7
First Quarter
Jan 15
Full
Jan 23
Last Quarter
Jan 30
New

Hourly Weather History & Observations

Time (CST) Temp. Windchill Dew Point Humidity Pressure Visibility Wind Dir Wind Speed Gust Speed Precip Events Conditions
2:15 AM 15.8 °F 0.3 °F 1.4 °F 53% 30.40 in 10.0 mi NNW 16.1 mph - N/A   Clear
3:15 AM 12.2 °F -1.8 °F -0.4 °F 57% 30.43 in 10.0 mi NW 11.5 mph - N/A   Clear
3:35 AM 12.2 °F -1.8 °F -0.4 °F 57% 30.43 in 10.0 mi NW 11.5 mph - N/A   Clear
3:55 AM 12.2 °F -3.7 °F -0.4 °F 57% 30.44 in 10.0 mi NW 15.0 mph - N/A   Clear
4:15 AM 12.2 °F -2.5 °F -0.4 °F 57% 30.44 in 10.0 mi NW 12.7 mph - N/A   Clear
4:35 AM 10.4 °F -6.0 °F -2.2 °F 57% 30.45 in 10.0 mi WNW 15.0 mph - N/A   Clear
4:55 AM 10.4 °F -6.6 °F -2.2 °F 57% 30.45 in 10.0 mi NW 16.1 mph - N/A   Clear
8:55 AM 10.4 °F -7.2 °F -4.0 °F 52% 30.55 in 10.0 mi WNW 17.3 mph - N/A   Scattered Clouds
9:53 AM 12.2 °F -3.7 °F -2.2 °F 53% 30.57 in 10.0 mi West 15.0 mph - N/A   Scattered Clouds
10:52 AM 12.2 °F -1.8 °F -2.2 °F 53% 30.56 in 10.0 mi WNW 11.5 mph - N/A   Scattered Clouds
11:53 AM 14.0 °F 0.5 °F -2.2 °F 49% 30.54 in 10.0 mi WNW 11.5 mph - N/A   Scattered Clouds
12:53 PM 14.0 °F -2.0 °F -2.2 °F 49% 30.53 in 10.0 mi WNW 16.1 mph - N/A   Scattered Clouds
1:53 PM 15.8 °F 2.1 °F -2.2 °F 45% 30.53 in 10.0 mi West 12.7 mph - N/A   Scattered Clouds
2:53 PM 14.0 °F -2.0 °F -2.2 °F 49% 30.54 in 10.0 mi WNW 16.1 mph - N/A   Partly Cloudy
3:53 PM 14.0 °F -0.8 °F -2.2 °F 49% 30.54 in 10.0 mi WNW 13.8 mph - N/A   Partly Cloudy
4:50 PM 12.2 °F -2.5 °F -2.2 °F 53% 30.54 in 10.0 mi WNW 12.7 mph - N/A   Partly Cloudy
5:52 PM 12.2 °F 0.7 °F -2.2 °F 53% 30.55 in 10.0 mi West 8.1 mph - N/A   Clear
6:50 PM 10.4 °F -1.5 °F -2.2 °F 57% 30.55 in 10.0 mi WNW 8.1 mph - N/A   Clear
7:50 PM 10.4 °F -0.4 °F -2.2 °F 57% 30.56 in 10.0 mi NNW 6.9 mph - N/A   Clear
8:50 PM 10.4 °F -0.4 °F -2.2 °F 57% 30.58 in 10.0 mi NNW 6.9 mph - N/A   Clear
9:50 PM 10.4 °F 4.0 °F -0.4 °F 62% 30.61 in 10.0 mi WNW 3.5 mph - N/A   Clear
10:50 PM 10.4 °F -4.1 °F -2.2 °F 57% 30.62 in 10.0 mi WNW 11.5 mph - N/A   Clear
11:50 PM 8.6 °F -7.7 °F -5.8 °F 52% 30.62 in 10.0 mi NW 13.8 mph - N/A   Clear